Weather in Topolevy

Russia / Rostov Oblast     48°05′06″N   40°23′06″E
temp.,
°C
wind,
m/s
gust,
m/s
humid.,
%
clouds,
%
prec.,
mm/h
press.,
hPa
HPBL,
m
4 march, thu
thu400:00−2wnw37770 0.0 1022267
03:00−2wsw47760 0.0 1023195
06:00−2sw49740 0.0 1022255
09:00+1wsw812580 0.0 1022656
12:00+5wsw912460 0.0 10201056
15:00+6wsw913510 0.0 10181120
18:00+3sw815660 0.0 1016646
21:00+2sw918680 0.0 1015547
5 march, fri
fri500:00+2sw10198497 0.0 1014674
03:00+2wsw11198280 0.0 1014670
06:00+2wsw10188896 0.0 1013697
09:00+4wsw9158295 0.0 1013785
12:00+5wsw91378100 0.0 1014873
15:00+5wsw71285100 0.1 1013744
18:00+5sw61282100 0.0 1014557
21:00+5sw71485100 0.0 1014654
6 march, sat
sat600:00+5sw81585100 0.0 1013547
03:00+4sw71589100 0.0 1012571
06:00+4sw71389100 0.0 1010519
09:00+5wsw61291100 0.2 1010584
12:00+4wnw5992100 0.5 1011512
15:00+1nnw6991100 0.9 1012575
18:00+1nnw6984100 0.1 1014787
21:00−1nw91272100 0.4 1017957
7 march, sun
sun700:00−3nw8116445 0.0 10191030
03:00−4nw7116223 0.0 10211163
06:00−4nw7106573 0.0 10231145
09:00−3nw685463 0.0 1024956
12:000w57420 0.0 10241365
15:00+1wsw69390 0.0 10221454
18:00−1sw6125119 0.0 1020569
21:00−2sw8156416 0.0 1019610
8 march, mon
mon800:00−2wsw7156814 0.0 1018669
03:00−1sw715637 0.0 1016630
06:00−1sw815660 0.0 1015654
09:00+1wsw9146144 0.0 10151005
12:00+5wsw10154764 0.0 10141734
15:00+5wsw9145082 0.0 10131932
18:00+2wsw7138494 0.1 1013620
21:00+1sw6138492 0.1 1014512